Tracking 30743 objects as of 20-Jun-2025
HD Live streaming from Space Station
objects crossing your sky now

FENGYUN 1C DEB

Track FENGYUN 1C DEB now!
10-day predictions


NORAD ID: 31041
Int'l Code: 1999-025BEK
Perigee: 778.4 km
Apogee: 912.8 km
Inclination: 99.2 °
Period: 101.7 minutes
Semi major axis: 7216 km
RCS: 0.0058 m2 (small)
Launch date: May 10, 1999
Source: People's Republic of China (PRC)
Launch site: Taiyaun Space Center, China (TSC)

Note: This is SATELLITE DEBRIS
Your satellite tracking list
Your tracking list is empty




NASA's NSSDC Master Catalog

Two Line Element Set (TLE):
1 31041U 99025BEK 25171.29690785  .00003481  00000-0  17095-2 0  9996
2 31041  99.2142 193.7165 0093134  96.7070 264.4712 14.16142202930055
Source of the keplerian elements: AFSPC